Tracking 19248 objects as of 26-Sep-2018
HD Live streaming from Space Station
objects crossing your sky now

SL-16 DEB

Track SL-16 DEB now!
10-day predictions


NORAD ID: 23709
Int'l Code: 1995-058F
Perigee: 847.1 km
Apogee: 1,137.1 km
Inclination: 71.0 °
Period: 104.8 minutes
Semi major axis: 7363 km
RCS: 0.088 m2 (small)
Launch date: October 31, 1995
Source: Commonwealth of Independent States (former USSR) (CIS)
Launch site: TYURATAM MISSILE AND SPACE COMPLEX (TTMTR)

Note: This is SATELLITE DEBRIS
aabbcc
Your satellite tracking list
Your tracking list is empty




NASA's NSSDC Master Catalog

Two Line Element Set (TLE):
1 23709U 95058F   18267.91109360 -.00000000 +00000-0 +38130-4 0  9991
2 23709 071.0384 233.7729 0196905 059.2343 333.0476 13.74077092147979
Source of the keplerian elements: AFSPC